Weather History for Kenai, AK

Change the Weather History Date:

Thursday, February 14, 2013

  Actual Average Record
Temperature  
Mean Temperature 30 °F -  
Max Temperature 33 °F 25 °F 42 °F (1977)
Min Temperature 28 °F 5 °F -26 °F (1967)
Degree Days  
Heating Degree Days 34    
Moisture  
Dew Point 28 °F    
Average Humidity 88    
Maximum Humidity 100    
Minimum Humidity 75    
Precipitation  
Precipitation 0.00 in - - ()
Sea Level Pressure  
Sea Level Pressure 29.38 in    
Wind  
Wind Speed 15 mph (NNE)    
Max Wind Speed 26 mph    
Max Gust Speed 33 mph    
Visibility 9 miles    
Events Snow    
Averages and records for this station are not official NWS values.
T = Trace of Precipitation, MM = Missing Value Source: NWS Daily Summary

Daily Weather History Graph

Daily Weather History Graph

Search for Another Location

Airport:

Trip Planner

Search our weather history database for the weather conditions in past years. The results will help you decide how hot, cold, wet, or windy it might be!

Date:

Astronomy

Feb. 14, 2013 Rise Set
Actual Time 8:46 AM AKST 5:52 PM AKST
Civil Twilight 8:01 AM AKST 6:37 PM AKST
Nautical Twilight 7:12 AM AKST 7:27 PM AKST
Astronomical Twilight 6:23 AM AKST 8:16 PM AKST
Moon 9:23 AM AKST (2/14) No Moon Set
Length of Visible Light 10h 36m
Length of Day
9h 06m
Waxing Crescent, 23% of the Moon is Illuminated
Feb 14
Waxing Crescent
Feb 17
First Quarter
Feb 25
Full
Mar 4
Last Quarter
Mar 11
New

Hourly Weather History & Observations

Time (AKST) Temp. Windchill Dew Point Humidity Pressure Visibility Wind Dir Wind Speed Gust Speed Precip Events Conditions
12:53 AM 30.9 °F 19.4 °F 26.1 °F 82% 29.57 in 10.0 mi NNE 17.3 mph - N/A   Overcast
1:53 AM 32.0 °F 21.2 °F 26.1 °F 79% 29.57 in 10.0 mi NNE 16.1 mph - N/A   Overcast
3:53 AM 30.0 °F 20.0 °F 25.0 °F 82% 29.53 in 10.0 mi North 12.7 mph - N/A   Overcast
4:53 AM 30.9 °F 20.2 °F 26.1 °F 82% 29.49 in 10.0 mi NNE 15.0 mph - N/A   Overcast
5:53 AM 30.9 °F 19.4 °F 26.1 °F 82% 29.46 in 10.0 mi North 17.3 mph - N/A   Overcast
6:53 AM 32.0 °F 19.2 °F 25.0 °F 75% 29.42 in 10.0 mi NNE 23.0 mph - N/A   Overcast
7:53 AM 30.9 °F 17.2 °F 25.0 °F 79% 29.39 in 9.0 mi NNE 25.3 mph - N/A   Overcast
8:53 AM 30.9 °F 16.9 °F 25.0 °F 79% 29.34 in 6.0 mi NNE 26.5 mph - N/A   Overcast
9:53 AM 30.9 °F 16.9 °F 27.0 °F 85% 29.30 in 7.0 mi North 26.5 mph 33.4 mph N/A   Overcast
10:53 AM 30.9 °F 16.9 °F 27.0 °F 85% 29.25 in 7.0 mi North 26.5 mph 32.2 mph N/A   Mostly Cloudy
11:53 AM 32.0 °F 19.8 °F 27.0 °F 82% 29.23 in 7.0 mi North 20.7 mph 31.1 mph N/A   Mostly Cloudy
12:53 PM 32.0 °F 19.5 °F 26.1 °F 79% 29.23 in 7.0 mi North 21.9 mph - N/A   Overcast
1:53 PM 32.0 °F 19.8 °F 26.1 °F 79% 29.24 in 7.0 mi North 20.7 mph 29.9 mph N/A   Overcast
2:53 PM 32.0 °F 20.1 °F 28.0 °F 85% 29.25 in 9.0 mi North 19.6 mph - N/A   Overcast
3:53 PM 33.1 °F 23.4 °F 28.0 °F 82% 29.26 in 10.0 mi North 13.8 mph - 0.00 in   Overcast
4:49 PM 32.0 °F 23.6 °F 28.4 °F 87% 29.28 in 6.0 mi North 10.4 mph - 0.00 in Snow Light Snow
4:53 PM 32.0 °F 24.2 °F 28.9 °F 88% 29.29 in 6.0 mi North 9.2 mph - 0.00 in Snow Light Snow
5:53 PM 32.0 °F 28.7 °F 30.0 °F 92% 29.33 in 10.0 mi NNW 3.5 mph - 0.00 in   Overcast
6:12 PM 32.0 °F 28.7 °F 30.2 °F 93% 29.33 in 10.0 mi NNW 3.5 mph - N/A   Overcast
6:53 PM 30.9 °F - 30.0 °F 96% 29.37 in 10.0 mi Calm Calm - N/A   Overcast
7:26 PM 30.2 °F 24.3 °F 28.4 °F 93% 29.38 in 10.0 mi SSW 5.8 mph - N/A   Overcast
7:40 PM 30.2 °F 25.4 °F 28.4 °F 93% 29.38 in 10.0 mi South 4.6 mph - N/A   Overcast
7:45 PM 30.2 °F 24.3 °F 28.4 °F 93% 29.39 in 10.0 mi South 5.8 mph - N/A   Overcast
7:53 PM 30.0 °F 25.2 °F 28.9 °F 96% 29.40 in 10.0 mi South 4.6 mph - N/A   Overcast
7:57 PM 30.2 °F 24.3 °F 28.4 °F 93% 29.39 in 10.0 mi South 5.8 mph - N/A   Overcast
8:09 PM 30.2 °F 23.4 °F 28.4 °F 93% 29.40 in 10.0 mi South 6.9 mph - N/A   Overcast
8:53 PM 30.0 °F 23.2 °F 30.0 °F 100% 29.43 in 10.0 mi South 6.9 mph - N/A   Overcast
9:12 PM 30.2 °F 21.9 °F 28.4 °F 93% 29.43 in 1.5 mi South 9.2 mph - N/A   Overcast
9:26 PM 30.2 °F 21.3 °F 28.4 °F 93% 29.43 in 3.0 mi South 10.4 mph - N/A   Overcast
9:53 PM 30.0 °F 22.4 °F 28.9 °F 96% 29.45 in 10.0 mi South 8.1 mph - N/A   Overcast
10:15 PM 30.2 °F 22.6 °F 28.4 °F 93% 29.45 in 10.0 mi South 8.1 mph - N/A   Overcast
10:53 PM 28.9 °F 21.1 °F 27.0 °F 92% 29.47 in 10.0 mi South 8.1 mph - N/A   Scattered Clouds
11:53 PM 28.9 °F 23.9 °F 26.1 °F 89% 29.50 in 10.0 mi SSE 4.6 mph - N/A   Overcast